Tracking 31027 objects as of 19-Jul-2025
HD Live streaming from Space Station
objects crossing your sky now

COSMOS 970 DEB

Track COSMOS 970 DEB now!
10-day predictions


NORAD ID: 10884
Int'l Code: 1977-121AF
Perigee: 840.1 km
Apogee: 1,117.3 km
Inclination: 66.4 °
Period: 104.5 minutes
Semi major axis: 7349 km
RCS: 0.1338 m2 (medium)
Launch date: December 21, 1977
Source: Commonwealth of Independent States (former USSR) (CIS)
Launch site: TYURATAM MISSILE AND SPACE COMPLEX (TTMTR)

Note: This is SATELLITE DEBRIS
Your satellite tracking list
MAROC TUBSAT
Track 1 satellite(s)




NASA's NSSDC Master Catalog

Two Line Element Set (TLE):
1 10884U 77121AF  25199.67342777  .00000131  00000-0  18161-3 0  9993
2 10884  66.3880  98.8753 0188585 121.0022 240.9723 13.77834111386063
Source of the keplerian elements: AFSPC